FW7766 Weather Reports


Display with metric or nautical units.
time (UTC)temp
F
wind
direction
speed
MPH
gust
MPH
rain 1hr
in
rain 24hr
in
rain mn
in
humidity
%
barometer
mb
20260905140109 79 0.0 0.0 0.00 0.00 0.00 61 1014.3
20260905135105 78 0.0 0.0 0.00 0.00 0.00 62 1014.4
20260905134102 77 0.0 0.0 0.00 0.00 0.00 63 1014.4
20260905133059 76 0.0 0.0 0.00 0.00 0.00 64 1014.3
20260905132055 75 0.0 0.0 0.00 0.00 0.00 65 1014.3
20260905131052 75 0.0 0.0 0.00 0.00 0.00 66 1014.5
20260905130108 74 0.0 0.0 0.00 0.00 0.00 72 1014.5
20260905125125 73 0.0 0.0 0.00 0.00 0.00 75 1014.6
20260905124041 73 0.0 0.0 0.00 0.00 0.00 74 1014.6
20260905123038 72 0.0 0.0 0.00 0.00 0.00 79 1014.6
20260905122034 72 0.0 0.0 0.00 0.00 0.00 84 1014.7
20260905121111 72 0.0 0.0 0.00 0.00 0.00 85 1014.5
20260905120028 72 0.0 0.0 0.00 0.00 0.00 85 1014.5
20260905115024 72 0.0 0.0 0.00 0.00 0.00 85 1014.2
20260905114021 72 0.0 0.0 0.00 0.00 0.00 86 1014.1
20260905113017 72 0.0 0.0 0.00 0.00 0.00 86 1014.0
20260905112134 72 0.0 0.0 0.00 0.00 0.00 86 1014.0
20260905111111 72 0.0 0.0 0.00 0.00 0.00 87 1013.9
20260905110108 72 0.0 0.0 0.00 0.00 0.00 86 1013.9
20260905105104 72 0.0 0.0 0.00 0.00 0.00 86 1013.9
20260905104121 72 0.0 0.0 0.00 0.00 0.00 86 1013.6
20260905103057 72 0.0 0.0 0.00 0.00 0.00 87 1013.7
20260905102054 72 0.0 0.0 0.00 0.00 0.00 87 1013.6
20260905101131 72 0.0 0.0 0.00 0.00 0.00 85 1013.6
20260905100107 72 0.0 0.0 0.00 0.00 0.00 84 1013.5
20260905095044 72 0.0 0.0 0.00 0.00 0.00 84 1013.4
20260905094040 73 0.0 0.0 0.00 0.00 0.00 81 1013.6
20260905093037 73 0.0 0.0 0.00 0.00 0.00 80 1013.5
20260905092034 73 0.0 0.0 0.00 0.00 0.00 80 1013.5
20260905091030 73 0.0 0.0 0.00 0.00 0.00 80 1013.5
20260905090107 73 0.0 0.0 0.00 0.00 0.00 79 1013.7
20260905085023 73 0.0 0.0 0.00 0.00 0.00 78 1013.7
20260905084018 73 0.0 0.0 0.00 0.00 0.00 78 1013.8
20260905083115 73 0.0 0.0 0.00 0.00 0.00 77 1013.9
20260905082111 73 0.0 0.0 0.00 0.00 0.00 76 1013.9
20260905081108 73 0.0 0.0 0.00 0.00 0.00 75 1014.0
20260905080105 73 0.0 1.0 0.00 0.00 0.00 75 1014.0
20260905075122 73 0 0.0 1.0 0.00 0.00 0.00 72 1014.2
20260905074058 73 0.0 0.0 0.00 0.00 0.00 69 1014.3
20260905073055 74 0.0 0.0 0.00 0.00 0.00 67 1014.4
20260905072111 74 0.0 0.0 0.00 0.00 0.00 67 1014.4
20260905071048 74 0.0 0.0 0.00 0.00 0.00 67 1014.5
20260905070045 74 0.0 0.0 0.00 0.00 0.00 66 1014.6
20260905065041 74 0.0 0.0 0.00 0.00 0.00 66 1014.9
20260905064038 74 0.0 0.0 0.00 0.00 0.00 66 1014.8
20260905063034 74 0.0 0.0 0.00 0.00 0.00 66 1015.0
20260905062111 74 90 0.0 1.0 0.00 0.00 0.00 66 1015.4
20260905061028 75 0.0 1.0 0.00 0.00 0.00 65 1015.4
20260905060024 75 0.0 0.0 0.00 0.00 0.00 66 1015.5
20260905055041 75 0.0 0.0 0.00 0.00 0.00 65 1015.8
20260905054017 75 0.0 0.0 0.00 0.00 0.00 65 1015.8
20260905053114 75 0.0 0.0 0.00 0.00 0.00 65 1015.9
20260905052111 75 270 1.0 2.0 0.00 0.00 0.00 65 1015.9
20260905051127 75 102 2.0 3.0 0.00 0.00 0.00 65 1015.8
20260905050103 75 0 0.0 1.0 0.00 0.00 0.00 65 1016.1
20260905045120 75 0.0 0.0 0.00 0.00 0.00 65 1016.1
20260905044056 75 90 1.0 2.0 0.00 0.00 0.00 65 1016.2
20260905043052 75 90 0.0 1.0 0.00 0.00 0.00 65 1016.0
20260905042049 75 90 1.0 2.0 0.00 0.00 0.00 65 1016.2
20260905041045 75 20 1.0 1.0 0.00 0.00 0.00 65 1016.2
20260905040042 75 76 1.0 1.0 0.00 0.00 0.00 65 1016.3
20260905035039 75 270 0.0 2.0 0.00 0.00 0.00 65 1016.2
20260905034035 75 0.0 0.0 0.00 0.00 0.00 64 1016.0
20260905033112 76 270 0.0 1.0 0.00 0.00 0.00 64 1015.9
20260905032109 76 0.0 0.0 0.00 0.00 0.00 63 1015.7
20260905031045 76 0.0 0.0 0.00 0.00 0.00 63 1015.7
20260905030022 76 0.0 0.0 0.00 0.00 0.00 63 1015.6
20260905025018 77 0.0 0.0 0.00 0.00 0.00 61 1015.6
20260905024015 77 0.0 0.0 0.00 0.00 0.00 61 1015.4
20260905023112 77 0.0 0.0 0.00 0.00 0.00 61 1015.4
20260905022107 77 0.0 0.0 0.00 0.00 0.00 61 1015.5
20260905021103 78 0.0 0.0 0.00 0.00 0.00 61 1015.6
20260905020100 78 0.0 0.0 0.00 0.00 0.00 59 1015.4
20260905015056 78 0.0 0.0 0.00 0.00 0.00 60 1015.1
20260905014053 79 0.0 0.0 0.00 0.00 0.00 61 1015.0
20260905013109 79 0.0 0.0 0.00 0.00 0.00 59 1015.0
20260905012046 79 0.0 0.0 0.00 0.00 0.00 59 1015.1
20260905011102 80 0.0 0.0 0.00 0.00 0.00 58 1015.1
20260905010039 80 0.0 0.0 0.00 0.00 0.00 57 1015.1
20260905005035 81 0.0 0.0 0.00 0.00 0.00 57 1015.3
20260905004032 82 0.0 0.0 0.00 0.00 0.00 55 1015.1
20260905003028 82 0.0 0.0 0.00 0.00 0.00 53 1015.4
20260905002025 83 90 1.0 2.0 0.00 0.00 0.00 52 1015.6
20260905001022 83 90 3.0 5.0 0.00 0.00 0.00 52 1015.6
20260905000018 83 90 0.0 1.0 0.00 0.00 0.00 53 1015.6
20260904235115 84 0.0 0.0 0.00 0.00 0.00 52 1015.6
20260904234111 85 90 1.0 3.0 0.00 0.00 0.00 49 1015.5
20260904233108 85 0 1.0 2.0 0.00 0.00 0.00 50 1015.6
20260904232105 87 60 1.0 3.0 0.00 0.00 0.00 52 1015.4
20260904231101 88 14 1.0 2.0 0.00 0.00 0.00 49 1015.4
20260904230058 87 357 1.0 3.0 0.00 0.00 0.00 50 1015.6
20260904225054 87 90 0.0 1.0 0.00 0.00 0.00 49 1015.3
20260904224051 87 0.0 0.0 0.00 0.00 0.00 48 1015.1
20260904223048 87 0.0 0.0 0.00 0.00 0.00 48 1015.1
20260904222104 87 0.0 0.0 0.00 0.00 0.00 47 1015.1
20260904221101 87 32 1.0 3.0 0.00 0.00 0.00 49 1015.3
20260904220057 88 27 1.0 3.0 0.00 0.00 0.00 49 1015.2
20260904215054 88 0.0 0.0 0.00 0.00 0.00 48 1015.3
20260904214030 87 270 0.0 1.0 0.00 0.00 0.00 48 1015.3
20260904213107 86 284 2.0 3.0 0.00 0.00 0.00 49 1015.1
20260904212023 86 270 0.0 1.0 0.00 0.00 0.00 48 1015.1
20260904211020 87 264 2.0 4.0 0.00 0.00 0.00 48 1015.1
20260904210017 89 264 6.0 9.0 0.00 0.00 0.00 47 1015.1
20260904205134 91 270 0.0 1.0 0.00 0.00 0.00 45 1014.8
20260904204150 91 270 0.0 2.0 0.00 0.00 0.00 44 1014.6
20260904203107 92 270 1.0 3.0 0.00 0.00 0.00 36 1014.7
20260904202103 93 0.0 0.0 0.00 0.00 0.00 38 1014.5
20260904201100 94 270 1.0 4.0 0.00 0.00 0.00 39 1014.7
20260904200057 95 270 1.0 3.0 0.00 0.00 0.00 40 1014.8
20260904195113 95 270 1.0 2.0 0.00 0.00 0.00 39 1014.7
20260904194049 95 262 2.0 4.0 0.00 0.00 0.00 39 1014.9
20260904193106 95 56 1.0 3.0 0.00 0.00 0.00 39 1015.2
20260904192042 95 270 1.0 3.0 0.00 0.00 0.00 39 1015.3
20260904191039 95 3 1.0 3.0 0.00 0.00 0.00 39 1015.5
20260904190036 95 270 0.0 1.0 0.00 0.00 0.00 39 1015.8
20260904185032 95 270 1.0 2.0 0.00 0.00 0.00 40 1016.0
20260904184029 95 270 0.0 1.0 0.00 0.00 0.00 40 1016.1
20260904183025 96 90 1.0 2.0 0.00 0.00 0.00 40 1016.2
20260904182022 95 270 1.0 3.0 0.00 0.00 0.00 39 1016.3
20260904181057 95 243 0.0 2.0 0.00 0.00 0.00 39 1016.5
20260904180134 96 45 1.0 2.0 0.00 0.00 0.00 40 1016.7
20260904175111 96 345 2.0 3.0 0.00 0.00 0.00 44 1016.7
20260904174108 95 310 1.0 2.0 0.00 0.00 0.00 40 1016.8
20260904173104 96 0.0 0.0 0.00 0.00 0.00 39 1016.9
20260904172101 96 315 1.0 2.0 0.00 0.00 0.00 39 1016.9
20260904171058 94 270 2.0 3.0 0.00 0.00 0.00 39 1017.0
20260904170114 94 90 1.0 3.0 0.00 0.00 0.00 39 1017.1
20260904165051 94 347 2.0 3.0 0.00 0.00 0.00 39 1017.3
20260904164107 95 45 1.0 2.0 0.00 0.00 0.00 38 1017.3
20260904163224 96 22 1.0 2.0 0.00 0.00 0.00 39 1017.5
20260904162041 95 153 1.0 2.0 0.00 0.00 0.00 37 1017.8
20260904161037 95 0.0 1.0 0.00 0.00 0.00 44 1017.7
20260904160033 93 0.0 0.0 0.00 0.00 0.00 45 1017.7
20260904155030 90 0.0 0.0 0.00 0.00 0.00 50 1017.7
20260904154027 89 0 0.0 2.0 0.00 0.00 0.00 51 1017.9
20260904153023 87 0.0 0.0 0.00 0.00 0.00 52 1017.8
20260904152019 87 0.0 0.0 0.00 0.00 0.00 55 1017.8
20260904151016 86 270 0.0 1.0 0.00 0.00 0.00 55 1017.9
20260904150113 85 0.0 0.0 0.00 0.00 0.00 55 1017.9
20260904145109 84 270 0.0 1.0 0.00 0.00 0.00 56 1018.1
20260904144106 84 326 1.0 2.0 0.00 0.00 0.00 56 1018.1
20260904143102 83 0 0.0 1.0 0.00 0.00 0.00 56 1018.1
20260904142059 82 0.0 1.0 0.00 0.00 0.00 58 1018.0